Miscellaneous Local Product
Issued by NWS Hastings, NE

Home | Current Version | Previous Version | Text Only | Print | Product List | Glossary On
Versions: 1 2 3 4 5 6 7 8 9 10 11 12 13 14 15 16 17 18 19 20 21 22 23 24 25 26 27 28 29 30 31 32 33 34 35 36 37 38 39 40 41 42 43 44 45 46 47 48 49 50
000
AXUS43 KGID 270602
MISGRI

GID CWA HOURLY WEATHER ROUNDUP
NATIONAL WEATHER SERVICE HASTINGS NE
100 AM CDT FRI MAR 27 2015

NOTE: "FAIR" INDICATES FEW OR NO CLOUDS BELOW 12,000 FEET WITH NO
SIGNIFICANT WEATHER AND/OR OBSTRUCTIONS TO VISIBILITY.

...SOUTH CENTRAL NEBRASKA...

CITY           SKY/WX    TMP DP  RH WIND       PRES   REMARKS
GRAND ISLAND   PTCLDY    28  24  85 N6        30.24S WCI  22
HASTINGS       PTCLDY    30  26  85 N7        30.22S WCI  23
KEARNEY        CLOUDY    34  25  69 NE15      30.23S WCI  24
ORD            MOCLDY    29  24  82 N3        30.22S
YORK           PTCLDY    30  30 100 N6        30.22S WCI  24
AURORA         PTCLDY    30  29  98 N6        30.23R WCI  24
LEXINGTON      CLOUDY    34  28  77 NE12      30.22S WCI  25
HOLDREGE       CLOUDY    32  28  83 NE15      30.22S WCI  22
HEBRON         PTCLDY    33  29  86 N7        30.23R WCI  27

...NEBRASKA PANHANDLE...

CITY           SKY/WX    TMP DP  RH WIND       PRES   REMARKS
CHADRON        LGT RAIN  39  31  72 SE5       30.17R
ALLIANCE       FLURRIES  37  28  70 SE5       30.17R WCI  33
SCOTTSBLUFF    MOCLDY    41  32  70 E5        30.16R
SIDNEY         CLOUDY    39  30  70 SE8       30.17S WCI  33

...WESTERN AND NORTH CENTRAL NEBRASKA...

CITY           SKY/WX    TMP DP  RH WIND       PRES   REMARKS
VALENTINE      CLOUDY    31  25  78 CALM      30.22S
AINSWORTH      CLOUDY    32  27  83 CALM      30.22S
ONEILL         CLOUDY    33  30  92 N8        30.24S WCI  25
BROKEN BOW     CLOUDY    33  26  75 NE8       30.22S WCI  26
IMPERIAL         N/A     37  28  70 E7        30.20R WCI  32
NORTH PLATTE   CLOUDY    33  27  78 E7        30.20S WCI  27
MCCOOK         CLOUDY    35  28  75 E5        30.23R WCI  31

...EASTERN NEBRASKA...

CITY           SKY/WX    TMP DP  RH WIND       PRES   REMARKS
NORFOLK        PTCLDY    31  26  82 N13       30.23R WCI  21
SO SIOUX CITY  CLEAR     28  17  63 N8        30.25S WCI  20
TEKAMAH        CLOUDY    30  24  78 NW10G25   30.25R WCI  21
COLUMBUS       CLEAR     30  21  69 NW9       30.24S WCI  22
ALBION         MOCLDY    29  26  87 NW3       30.23S
OMAHA EPPLEY   PTCLDY    32  29  88 N9        30.22R WCI  24
OFFUTT AFB     CLEAR     28  26  92 N5        30.21R WCI  23
MILLARD        PTCLDY    33  30  90 NW5       30.22R WCI  28
LINCOLN        CLEAR     32  30  92 NW7       30.23S WCI  26
NEBRASKA CITY  CLEAR     32  32 100 N6        30.20S FOG     WCI  26
BEATRICE       CLEAR     32  31  94 N8        30.21S WCI  25
FALLS CITY     MOCLDY    34  31  88 N7        30.19S WCI  28

...NORTHERN KANSAS...

CITY           SKY/WX    TMP DP  RH WIND       PRES   REMARKS
GOODLAND       CLOUDY    41  31  67 E9        30.19R
HILL CITY      CLOUDY    37  31  78 NE9       30.23R WCI  30
NORTON         MOCLDY    34  27  75 NE7       30.21R WCI  28
PHILLIPSBURG   CLOUDY    37  32  81 NE13      30.22S WCI  29
SMITH CENTER   CLOUDY    34  28  80 NE13G18   30.22R WCI  25
BELOIT         CLOUDY    36  32  87 N15G21    30.21R WCI  26
HAYS           CLOUDY    37  27  65 NE21G26   30.19R WCI  27
RUSSELL        CLOUDY    36  33  89 NE21G28   30.16S WCI  25
CONCORDIA      CLOUDY    35  33  92 NE13      30.21R WCI  26
SALINA         CLOUDY    39  33  79 NE10G22   30.18R WCI  32
TOPEKA         LGT RAIN  37  35  92 N7        30.18S WCI  32



USA.gov is the U.S. government's official web portal to all federal, state and local government web resources and services.